To NAV CANADA Home Page Login to a new session Search on AWWS site Feedback and Comments Disclaimer Vers la page française équivalente Tips FAQ What's new on the site To the Forecasts and Observations / NOTAM section To "File a Flight Plan" website Publications and other links Update of the User's profile FIC Telephone Numbers My Weather Data Folder Route Weather Data Regional Weather Data Local Weather Data To the Forecasts and Observations / NOTAM section
Request Generated 07/07/2015 at 22:08:08 UTC . Weather information available at that time is displayed.

METAR/TAF

MAKKOVIK/NL    

LWIS CYFT 072200Z AUTO 15016G23KT 16/13 A2979=
LWIS CYFT 072100Z AUTO 15010G15KT 15/13 A2981=
METAR CYFT 072000Z 15013G22KT 15SM BKN025 OVC080 15/13 A2982 RMK
SC5AS3 LAST OBS/NEXT080900 UTC PRESRR SLP101 DENSITY ALT 300FT=

CYFT - No TAF is issued for this station

Your time UTC time
Weather data provided by Environment Canada and NAV CANADA